This is the latest recevied weather packets stored in our database for station/object OE6JVE-13. If no packets are shown the sender has not sent any weather packets the latest 10 day(s).
| Time | Temp. | Humidity | Pressure | Rain* | Wind** | Luminosity | Snow |
|---|---|---|---|---|---|---|---|
| 1777618263 | 8.89° C | 54% | 1022.8 hPa | 0 mm | - | - | - |
| 1777617670 | 6.67° C | 70% | 1022.7 hPa | 0 mm | - | - | - |
| 1777617076 | 5° C | 76% | 1022.7 hPa | 0 mm | - | - | - |
| 1777616416 | 4.44° C | 80% | 1022.6 hPa | 0 mm | - | - | - |
| 1777615823 | 3.33° C | 81% | 1022.5 hPa | 0 mm | - | - | - |
| 1777615229 | 2.22° C | 81% | 1022.5 hPa | 0 mm | - | - | - |
| 1777614635 | 1.67° C | 81% | 1022.5 hPa | 0 mm | - | - | - |
| 1777614036 | 1.11° C | 81% | 1022.2 hPa | 0 mm | - | - | - |
| 1777496480 | 3.33° C | 83% | 1019.4 hPa | 0 mm | - | - | - |
| 1777495822 | 3.89° C | 83% | 1019.3 hPa | 0 mm | - | - | - |
| 1777495230 | 3.89° C | 83% | 1019 hPa | 0 mm | - | - | - |
| 1777494638 | 3.89° C | 83% | 1018.7 hPa | 0 mm | - | - | - |
| 1777494046 | 3.89° C | 82% | 1018.4 hPa | 0 mm | - | - | - |
| 1777493454 | 3.89° C | 82% | 1017.8 hPa | 0 mm | - | - | - |
| 1777492862 | 3.89° C | 81% | 1017.6 hPa | 0 mm | - | - | - |
| 1777492270 | 4.44° C | 81% | 1017.4 hPa | 0 mm | - | - | - |
| 1777491678 | 4.44° C | 81% | 1017.4 hPa | 0 mm | - | - | - |
| 1777491020 | 4.44° C | 80% | 1017.2 hPa | 0 mm | - | - | - |
| 1777490427 | 5° C | 80% | 1017.2 hPa | 0 mm | - | - | - |
| 1777489836 | 5° C | 80% | 1017 hPa | 0 mm | - | - | - |
| 1777489244 | 5.56° C | 79% | 1016.9 hPa | 0 mm | - | - | - |
| 1777488652 | 6.11° C | 78% | 1016.7 hPa | 0 mm | - | - | - |
| 1777488060 | 6.11° C | 77% | 1016.5 hPa | 0 mm | - | - | - |
| 1777487467 | 6.67° C | 75% | 1016.3 hPa | 0 mm | - | - | - |
| 1777486875 | 7.22° C | 71% | 1016 hPa | 0 mm | - | - | - |
* Rain latest hour (hover to see other rain measurements)
** Current wind speed in m/s (hover to see current wind gust speed)